Bartlesville, OK

11:37 PM CDT on August 24, 2016 (GMT -0500)
Bartlesville Municipal

Weather History for KBVO - December, 2011

Change the Weather History Date:

Sunday, December 18, 2011

  Actual Average Record
Temperature  
Mean Temperature 39 °F -  
Max Temperature 55 °F 50 °F 68 °F (1966)
Min Temperature 23 °F 25 °F 0 °F (1964)
Degree Days  
Heating Degree Days 26    
Moisture  
Dew Point 31 °F    
Average Humidity 64    
Maximum Humidity 96    
Minimum Humidity 44    
Precipitation  
Precipitation 0.00 in - - ()
Sea Level Pressure  
Sea Level Pressure 30.17 in    
Wind  
Wind Speed 4 mph (South)    
Max Wind Speed 13 mph    
Max Gust Speed 23 mph    
Visibility 10 miles    
Events      
Averages and records for this station are not official NWS values.
T = Trace of Precipitation, MM = Missing Value Source: NWS Daily Summary

Daily Weather History Graph

Daily Weather History Graph

Search for Another Location

Airport or City:

Trip Planner

Search our weather history database for the weather conditions in past years. The results will help you decide how hot, cold, wet, or windy it might be!

Date:

Astronomy

Dec. 18, 2011 Rise Set
Actual Time 7:31 AM CST 5:10 PM CST
Civil Twilight 7:02 AM CST 5:39 PM CST
Nautical Twilight 6:29 AM CST 6:11 PM CST
Astronomical Twilight 5:58 AM CST 6:43 PM CST
Moon 12:41 AM CST (12/18) 12:29 PM CST (12/18)
Length of Visible Light 10h 36m
Length of Day
9h 38m
Last Quarter, 42% of the Moon is Illuminated
Dec 18
Last Quarter
Dec 24
New
Jan 1
First Quarter
Jan 9
Full
Jan 16
Last Quarter

Hourly Weather History & Observations

Time (CST) Temp. Windchill Dew Point Humidity Pressure Visibility Wind Dir Wind Speed Gust Speed Precip Events Conditions
12:53 AM 25.0 °F - 24.1 °F 96% 30.37 in 10.0 mi Calm Calm - N/A   Clear
1:53 AM 24.1 °F - 23.0 °F 96% 30.35 in 10.0 mi Calm Calm - N/A   Clear
3:53 AM 23.0 °F - 21.9 °F 96% 30.35 in 10.0 mi Calm Calm - N/A   Clear
4:53 AM 23.0 °F - 21.0 °F 92% 30.33 in 10.0 mi Calm Calm - N/A   Clear
6:53 AM 25.0 °F - 23.0 °F 92% 30.32 in 10.0 mi Calm Calm - N/A   Clear
7:53 AM 27.0 °F - 25.0 °F 92% 30.30 in 10.0 mi Calm Calm - N/A   Clear
10:53 AM 46.0 °F 43.1 °F 37.0 °F 71% 30.27 in 10.0 mi SSE 5.8 mph - N/A   Overcast
11:53 AM 54.0 °F - 36.0 °F 51% 30.24 in 10.0 mi South 9.2 mph - N/A   Overcast
12:53 PM 55.9 °F - 35.1 °F 45% 30.19 in 10.0 mi South 11.5 mph 23.0 mph N/A   Overcast
1:53 PM 55.9 °F - 34.0 °F 44% 30.15 in 10.0 mi South 12.7 mph - N/A   Overcast
2:53 PM 55.9 °F - 35.1 °F 45% 30.11 in 10.0 mi South 6.9 mph 16.1 mph N/A   Overcast
3:53 PM 55.9 °F - 35.1 °F 45% 30.09 in 10.0 mi South 11.5 mph - N/A   Overcast
4:53 PM 55.0 °F - 36.0 °F 49% 30.07 in 10.0 mi South 9.2 mph - N/A   Overcast
5:53 PM 53.1 °F - 36.0 °F 52% 30.06 in 10.0 mi South 10.4 mph - N/A   Overcast
6:53 PM 52.0 °F - 35.1 °F 53% 30.05 in 10.0 mi South 8.1 mph - N/A   Overcast
7:53 PM 50.0 °F - 35.1 °F 57% 30.04 in 10.0 mi South 6.9 mph - N/A   Mostly Cloudy
8:53 PM 52.0 °F - 34.0 °F 50% 30.03 in 10.0 mi South 11.5 mph - N/A   Scattered Clouds
9:53 PM 52.0 °F - 34.0 °F 50% 30.02 in 10.0 mi SSW 9.2 mph - N/A   Mostly Cloudy
10:53 PM 51.1 °F - 33.1 °F 50% 30.01 in 10.0 mi South 11.5 mph - N/A   Clear
11:53 PM 50.0 °F - 32.0 °F 50% 30.01 in 10.0 mi South 9.2 mph - N/A   Clear